Wind_Speed
118 119 119 120 120 120 120 120 120 120 120 120 120 121 121 121 122 122 123 124 125 127 128 129 130 131 131 131 131 131 131 131 130 130 130 130 130 130 130 131 132 133
119 120 120 121 121 121 122 122 122 122 122 122 122 123 123 123 123 124 124 124 124 125 126 127 127 129 130 131 131 131 132 132 132 131 131 131 131 131 131 131 132 133
118 119 120 121 122 122 123 123 123 123 123 123 124 124 125 125 125 125 126 126 126 126 126 126 126 127 128 129 129 130 131 131 132 133 133 133 133 132 132 132 133 133
116 117 119 120 121 122 122 123 123 124 124 124 124 125 125 126 126 127 127 127 128 127 128 128 128 128 128 128 128 129 129 129 130 131 132 132 133 133 133 133 134 134
113 115 116 117 119 120 120 121 122 123 123 124 124 125 126 126 127 127 128 128 129 129 129 129 129 129 129 129 129 129 128 128 128 129 129 130 131 131 132 133 134 134
111 112 113 114 116 117 118 119 120 121 122 122 123 124 125 126 126 127 127 128 129 129 130 130 130 130 130 130 130 130 130 129 129 129 128 129 129 129 130 131 132 132
109 111 112 113 114 115 116 117 118 119 120 121 122 122 123 124 125 126 127 127 128 129 129 130 130 130 131 131 131 131 131 130 130 130 130 129 129 129 129 129 130 130
108 109 111 112 113 114 115 117 117 118 119 120 121 122 122 123 124 125 126 127 127 128 129 129 130 130 131 131 131 131 131 131 131 131 131 131 130 130 130 130 129 129
106 107 109 110 112 113 114 116 117 118 119 120 121 122 122 123 124 125 126 127 127 128 129 129 130 130 131 131 131 131 132 132 132 132 132 132 131 131 131 130 130 130
103 105 107 109 111 112 113 115 116 117 118 119 120 121 122 123 124 125 126 127 128 128 129 129 130 130 131 131 131 132 132 132 133 133 133 133 133 132 132 132 131 131
101 103 105 107 109 111 112 114 115 116 117 118 119 120 121 122 123 124 125 126 127 128 128 129 129 130 130 131 131 132 132 132 133 133 133 133 133 133 133 132 132 132
100 102 104 105 107 109 110 112 114 115 117 118 119 120 121 122 123 123 124 125 126 127 127 128 129 129 130 130 130 131 131 132 132 132 132 132 133 133 133 133 133 132
99 101 102 104 106 107 109 110 112 114 115 117 118 119 121 122 123 123 124 125 126 126 127 127 128 128 129 129 129 130 130 130 131 131 131 132 132 132 132 132 133 133
97 99 101 103 104 106 108 109 110 112 113 115 116 118 119 121 122 123 124 125 126 127 127 128 128 128 128 129 129 129 129 129 130 130 130 131 131 131 132 132 132 132
97 98 100 102 103 105 107 108 110 111 112 114 115 116 118 119 120 122 123 124 125 126 127 128 128 129 129 129 129 129 129 129 129 129 130 130 130 131 131 131 131 131
98 99 100 102 103 104 106 107 109 110 112 113 114 115 116 118 119 120 121 123 124 125 126 127 128 128 129 129 129 129 129 129 129 129 129 130 130 130 131 131 131 131
99 101 102 103 103 105 106 107 108 110 111 112 114 115 116 117 118 119 120 121 123 124 125 125 126 127 127 128 128 128 128 129 129 129 129 129 130 130 130 130 130 130
101 102 103 104 105 106 107 108 109 110 111 112 113 114 115 117 118 119 120 121 122 123 124 125 125 126 126 126 127 127 127 127 127 128 128 129 129 129 129 130 130 130
104 104 105 106 106 107 108 109 110 111 112 113 114 115 116 116 118 118 119 120 121 122 123 124 125 125 125 125 125 126 126 125 125 126 127 127 128 128 128 128 129 129
105 106 107 108 108 109 110 111 112 113 113 114 115 116 116 117 118 119 119 120 121 121 122 123 124 124 124 124 124 124 124 124 124 124 125 126 126 126 126 126 126 126
106 107 108 109 110 111 111 112 113 114 114 115 116 117 117 118 118 119 119 120 120 121 121 122 122 123 123 123 123 123 123 123 122 122 123 123 124 124 124 124 124 124
105 106 107 108 109 111 112 113 114 114 115 115 116 116 117 117 118 119 119 119 120 120 121 121 122 122 122 122 122 122 122 121 121 121 121 121 121 122 122 122 122 122
103 105 106 107 109 109 110 112 113 113 114 114 115 115 116 116 117 118 118 118 119 119 120 120 121 121 122 122 122 122 122 121 121 120 120 120 120 120 120 120 120 120
102 103 105 106 107 108 109 110 111 111 112 112 113 113 114 115 116 116 117 117 118 118 118 119 119 120 121 121 122 122 121 121 121 120 120 120 120 120 119 119 120 120
101 102 103 104 105 106 107 108 108 109 109 110 110 111 112 112 113 114 114 115 116 116 117 117 118 118 119 120 120 121 120 120 119 119 119 119 119 119 119 119 119 119
99 100 101 102 103 104 105 105 106 107 108 108 109 109 109 110 110 111 112 112 113 114 114 115 115 116 117 118 118 119 118 118 117 117 117 117 117 117 117 117 118 118
Wind_Direction
253 254 254 255 255 255 256 256 257 257 256 256 256 256 255 255 255 255 255 255 255 256 256 256 257 257 258 258 258 258 258 258 258 258 258 258 259 259 259 260 260 260
253 254 254 254 255 255 255 256 256 256 257 257 257 257 257 256 256 256 256 256 256 256 256 257 257 257 257 258 258 258 258 258 258 258 258 259 258 258 259 259 259 259
253 253 254 254 254 255 255 255 256 256 256 256 257 257 257 257 257 257 257 257 257 257 257 257 257 258 258 258 258 258 258 258 258 258 258 258 258 258 258 258 259 259
253 253 253 254 254 255 255 255 256 256 256 256 256 257 257 257 257 257 257 258 258 258 258 258 258 258 258 258 258 258 258 258 258 258 259 259 259 259 259 259 260 260
253 253 253 253 254 254 255 255 255 256 256 256 256 257 257 257 257 258 258 258 258 258 258 258 258 259 259 259 259 259 259 259 259 259 259 259 259 260 260 260 260 260
253 253 253 253 254 254 254 254 255 255 255 256 256 256 257 257 257 258 258 258 258 259 259 259 259 259 259 260 260 260 260 260 260 260 260 260 260 260 260 260 260 260
254 254 253 253 253 254 254 254 254 254 255 255 255 256 256 256 257 257 257 258 258 258 259 259 259 260 260 260 260 260 261 261 261 261 260 260 261 261 261 261 261 260
255 254 254 254 254 254 254 254 254 254 254 254 255 255 255 255 256 256 256 257 257 258 258 258 259 259 260 260 260 261 261 261 261 261 261 261 261 261 261 261 261 261
254 254 254 255 255 255 255 255 255 255 255 255 255 255 255 255 255 255 256 256 256 257 257 257 258 258 259 259 259 260 260 260 261 261 261 261 261 261 261 261 261 261
254 254 254 254 254 254 255 255 255 255 255 255 255 255 255 255 256 256 256 256 256 257 257 257 258 258 258 258 259 259 259 260 260 260 261 261 261 261 261 261 261 261
255 255 254 254 254 254 254 254 255 255 255 255 256 256 256 256 256 256 256 256 257 257 257 257 258 258 258 258 259 259 259 259 260 260 260 261 261 261 261 261 261 261
256 256 255 255 255 254 254 254 254 254 255 255 256 256 256 256 256 257 257 257 257 257 257 257 257 258 258 258 258 259 259 259 260 260 260 260 261 261 261 261 261 261
256 257 257 256 256 256 256 255 255 255 255 255 255 255 256 256 257 257 257 257 257 258 258 258 258 258 258 258 258 258 258 259 259 260 260 260 260 260 261 261 261 261
255 255 256 256 257 257 257 257 256 256 256 256 255 256 256 256 256 257 257 257 258 258 258 258 258 258 258 258 258 258 258 258 259 259 259 260 260 260 260 260 261 261
255 255 255 255 256 256 256 257 257 257 257 257 257 256 256 256 256 257 257 257 257 258 258 258 259 259 259 259 259 259 259 259 259 259 259 260 260 260 260 260 261 261
256 256 255 255 255 255 255 256 256 256 257 257 257 257 257 257 257 257 257 257 258 258 258 258 259 259 259 259 260 260 260 260 260 260 260 260 260 260 260 261 261 261
256 256 256 256 256 256 256 256 256 256 256 256 257 257 257 257 258 258 258 258 258 258 259 259 259 259 259 259 259 260 260 260 260 260 260 260 260 261 261 261 261 261
257 257 256 256 256 256 256 256 256 256 256 256 256 257 257 257 257 257 258 258 258 259 259 259 259 259 260 260 260 260 260 260 260 260 260 261 261 261 261 261 261 261
258 258 258 257 257 257 257 257 257 257 257 257 257 257 257 257 257 258 258 258 258 259 259 259 260 260 260 260 260 260 260 260 260 261 261 261 261 261 261 261 261 261
259 259 259 259 258 258 258 258 258 257 257 257 258 258 258 258 258 258 258 259 259 259 259 260 260 260 261 261 261 261 261 261 261 261 261 261 262 262 262 261 261 261
260 260 260 260 260 260 260 259 259 259 259 259 259 259 259 259 259 260 260 260 260 260 261 261 261 262 262 262 262 262 262 262 262 262 261 262 262 262 262 262 262 262
261 262 261 261 261 261 261 261 261 261 261 261 262 262 262 262 262 262 262 262 262 262 262 262 262 263 263 263 263 263 263 263 263 263 262 262 262 262 263 263 263 263
262 262 262 262 262 262 262 262 262 262 262 263 263 263 263 263 263 263 263 263 263 263 263 263 263 263 263 263 263 263 263 263 263 263 263 263 263 263 263 263 263 263
262 262 262 262 262 262 262 262 262 262 262 262 262 263 263 263 263 263 263 263 263 263 263 263 263 263 263 263 263 263 263 263 263 263 263 263 263 263 263 263 263 263
263 263 263 263 263 263 263 263 263 263 263 263 263 263 263 263 263 263 263 263 264 264 264 264 264 264 264 264 264 264 264 263 263 263 263 263 263 262 262 262 262 262
264 264 264 264 264 264 265 265 265 265 265 265 265 265 264 264 264 264 264 264 264 264 264 264 264 264 264 264 264 265 264 264 264 264 264 263 263 263 263 263 263 262
Height
10286 10287 10289 10290 10292 10293 10295 10296 10298 10300 10303 10306 10308 10309 10311 10313 10314 10315 10317 10317 10317 10317 10317 10319 10320 10321 10323 10324 10326 10329 10331 10332 10334 10337 10339 10341 10344 10348 10350 10351 10351 10353
10270 10272 10273 10275 10277 10278 10280 10281 10283 10285 10287 10289 10291 10292 10294 10296 10298 10298 10299 10301 10302 10302 10303 10304 10305 10306 10307 10308 10310 10312 10315 10317 10319 10321 10323 10324 10327 10330 10332 10332 10332 10333
10255 10257 10258 10260 10261 10263 10264 10266 10267 10269 10271 10273 10274 10276 10277 10279 10281 10282 10283 10284 10286 10287 10288 10289 10290 10291 10291 10292 10294 10296 10298 10300 10301 10303 10305 10307 10309 10312 10314 10315 10316 10317
10239 10241 10243 10245 10246 10248 10249 10251 10252 10254 10256 10257 10259 10260 10261 10262 10264 10265 10266 10267 10269 10271 10271 10273 10274 10275 10276 10276 10277 10279 10282 10284 10286 10288 10290 10291 10293 10295 10298 10299 10300 10302
10223 10225 10227 10229 10231 10233 10234 10235 10237 10238 10240 10242 10243 10244 10245 10246 10248 10249 10250 10251 10253 10254 10255 10256 10258 10259 10260 10261 10262 10264 10266 10268 10270 10272 10274 10276 10277 10279 10282 10283 10285 10286
10207 10209 10211 10213 10215 10217 10218 10219 10221 10222 10224 10226 10227 10229 10230 10231 10232 10233 10234 10235 10236 10238 10239 10239 10241 10242 10244 10245 10246 10248 10250 10252 10254 10256 10258 10259 10261 10263 10265 10266 10269 10270
10192 10194 10195 10197 10198 10200 10201 10203 10204 10206 10207 10209 10210 10212 10213 10214 10215 10216 10217 10218 10219 10221 10222 10223 10224 10226 10227 10229 10230 10231 10233 10235 10237 10239 10241 10242 10244 10246 10247 10249 10252 10254
10177 10178 10179 10181 10182 10183 10185 10186 10187 10189 10190 10192 10193 10194 10196 10197 10198 10199 10200 10201 10202 10204 10205 10206 10207 10209 10210 10211 10213 10214 10215 10217 10218 10220 10222 10225 10227 10229 10230 10232 10234 10237
10162 10163 10164 10165 10166 10167 10169 10170 10171 10172 10173 10174 10176 10177 10178 10179 10180 10181 10182 10183 10185 10186 10187 10189 10190 10191 10193 10194 10195 10197 10198 10199 10200 10201 10204 10206 10209 10211 10213 10215 10217 10219
10147 10148 10148 10149 10150 10151 10152 10153 10154 10156 10157 10158 10159 10160 10161 10162 10164 10165 10166 10166 10168 10169 10170 10172 10173 10174 10175 10176 10178 10179 10180 10181 10182 10184 10186 10188 10190 10192 10195 10197 10199 10201
10131 10132 10133 10134 10135 10136 10136 10137 10138 10139 10140 10141 10142 10143 10144 10145 10147 10148 10149 10150 10151 10152 10153 10155 10156 10157 10158 10159 10161 10162 10163 10164 10165 10167 10169 10171 10172 10174 10176 10178 10181 10183
10116 10117 10117 10118 10119 10120 10121 10122 10123 10124 10124 10125 10126 10126 10127 10128 10129 10130 10131 10132 10133 10134 10136 10137 10139 10140 10141 10142 10144 10145 10146 10147 10149 10151 10152 10154 10156 10157 10158 10160 10162 10164
10101 10102 10102 10103 10103 10104 10105 10106 10107 10108 10108 10109 10110 10111 10111 10112 10112 10113 10114 10115 10116 10117 10118 10119 10121 10122 10123 10125 10126 10128 10129 10131 10132 10134 10135 10137 10138 10140 10141 10142 10144 10146
10087 10087 10087 10087 10088 10088 10089 10090 10090 10091 10092 10093 10094 10095 10096 10096 10096 10097 10097 10098 10098 10099 10100 10101 10102 10104 10105 10107 10109 10111 10112 10114 10115 10117 10118 10119 10121 10122 10123 10124 10125 10127
10072 10072 10072 10072 10072 10072 10073 10073 10074 10074 10075 10076 10077 10078 10079 10079 10080 10081 10081 10081 10082 10082 10082 10083 10084 10086 10087 10088 10090 10093 10095 10097 10098 10100 10101 10102 10103 10104 10105 10107 10108 10110
10056 10056 10056 10056 10056 10057 10057 10057 10057 10058 10058 10059 10060 10061 10061 10062 10063 10063 10064 10064 10065 10065 10066 10066 10067 10068 10069 10071 10072 10074 10077 10079 10081 10083 10084 10085 10086 10087 10088 10090 10091 10093
10040 10040 10040 10040 10040 10041 10041 10041 10041 10042 10042 10042 10043 10043 10044 10045 10045 10046 10046 10047 10047 10047 10048 10048 10049 10050 10052 10053 10055 10057 10059 10061 10063 10065 10066 10067 10068 10070 10071 10073 10074 10076
10023 10024 10024 10024 10025 10025 10025 10025 10025 10026 10026 10026 10026 10027 10027 10027 10027 10028 10029 10029 10029 10029 10030 10030 10031 10032 10034 10036 10037 10039 10042 10044 10046 10048 10048 10049 10050 10052 10054 10056 10057 10058
10006 10006 10007 10008 10008 10008 10008 10008 10008 10009 10009 10009 10009 10009 10010 10010 10010 10011 10011 10012 10012 10012 10012 10012 10012 10013 10015 10017 10019 10021 10023 10026 10029 10030 10030 10031 10032 10034 10037 10038 10040 10041
9990 9990 9990 9991 9991 9991 9991 9991 9991 9991 9992 9991 9991 9992 9992 9992 9992 9993 9994 9995 9995 9995 9995 9995 9995 9996 9997 9999 10001 10003 10004 10007 10011 10013 10013 10013 10013 10015 10018 10020 10023 10025
9974 9975 9975 9975 9974 9974 9974 9974 9973 9974 9974 9974 9974 9975 9976 9976 9976 9976 9977 9978 9979 9979 9979 9979 9978 9979 9980 9981 9982 9984 9986 9989 9992 9995 9996 9997 9997 9997 9999 10002 10005 10007
9959 9959 9959 9959 9959 9958 9958 9957 9957 9957 9958 9957 9958 9959 9959 9960 9959 9959 9960 9961 9961 9962 9962 9963 9962 9961 9962 9963 9964 9965 9967 9971 9974 9976 9978 9979 9980 9981 9982 9984 9987 9989
9943 9942 9942 9942 9942 9942 9942 9941 9941 9941 9941 9941 9942 9942 9943 9942 9942 9942 9942 9943 9943 9943 9944 9946 9946 9944 9944 9945 9945 9946 9949 9952 9955 9957 9959 9961 9963 9964 9966 9967 9969 9970
9925 9924 9924 9924 9923 9923 9924 9924 9924 9924 9924 9925 9925 9925 9925 9925 9924 9925 9925 9925 9925 9925 9926 9927 9927 9926 9925 9925 9926 9927 9930 9933 9936 9938 9941 9943 9945 9947 9949 9950 9951 9952
9909 9908 9908 9907 9907 9906 9906 9907 9907 9907 9907 9907 9908 9909 9909 9908 9908 9908 9908 9908 9907 9907 9908 9908 9909 9909 9907 9907 9907 9908 9910 9914 9918 9920 9922 9924 9926 9928 9931 9932 9933 9934
9893 9893 9892 9892 9892 9891 9891 9891 9891 9890 9890 9889 9890 9891 9891 9891 9891 9891 9891 9891 9890 9890 9890 9890 9891 9892 9891 9890 9890 9890 9891 9895 9899 9902 9904 9906 9908 9910 9912 9914 9916 9917